TimeCDT,TemperatureF,Dew PointF,Humidity,Sea Level PressureIn,VisibilityMPH,Wind Direction,Wind SpeedMPH,Gust SpeedMPH,PrecipitationIn,Events,Conditions,WindDirDegrees,DateUTC
12:15 AM,62.1,54.9,77,29.67,10.0,SSW,13.8,-,N/A,,Scattered Clouds,210,2013-05-31 05:15:00
12:35 AM,61.9,55.4,79,29.64,10.0,South,9.2,-,N/A,,Scattered Clouds,170,2013-05-31 05:35:00
12:55 AM,61.0,55.6,82,29.64,10.0,SSW,5.8,-,N/A,,Clear,200,2013-05-31 05:55:00
1:15 AM,60.8,54.9,81,29.64,10.0,SW,5.8,-,N/A,,Clear,230,2013-05-31 06:15:00
1:35 AM,60.1,54.7,82,29.65,10.0,South,9.2,-,N/A,,Clear,190,2013-05-31 06:35:00
1:55 AM,60.1,54.0,80,29.65,10.0,South,12.7,-,N/A,,Clear,180,2013-05-31 06:55:00
2:15 AM,60.1,54.1,81,29.66,10.0,South,10.4,-,N/A,,Clear,180,2013-05-31 07:15:00
2:35 AM,59.7,54.5,83,29.66,10.0,South,11.5,-,N/A,,Clear,180,2013-05-31 07:35:00
2:55 AM,59.9,55.4,85,29.66,10.0,SSW,10.4,-,N/A,,Clear,200,2013-05-31 07:55:00
3:15 AM,60.4,55.4,83,29.66,10.0,South,13.8,-,N/A,,Clear,190,2013-05-31 08:15:00
3:35 AM,61.3,55.8,82,29.66,10.0,South,17.3,-,N/A,,Clear,190,2013-05-31 08:35:00
3:55 AM,62.1,57.9,86,29.64,10.0,South,17.3,-,N/A,,Clear,180,2013-05-31 08:55:00
4:15 AM,62.2,58.6,88,29.65,10.0,SSW,16.1,-,N/A,,Scattered Clouds,200,2013-05-31 09:15:00
4:35 AM,63.0,59.5,89,29.66,7.0,SSW,13.8,-,N/A,,Overcast,210,2013-05-31 09:35:00
4:55 AM,62.2,59.0,89,29.64,7.0,South,11.5,-,N/A,,Scattered Clouds,190,2013-05-31 09:55:00
5:15 AM,61.7,58.5,89,29.64,5.0,SSW,5.8,-,N/A,,Clear,200,2013-05-31 10:15:00
5:35 AM,60.8,58.1,91,29.63,4.0,South,4.6,-,N/A,,Clear,180,2013-05-31 10:35:00
5:55 AM,60.4,58.1,92,29.64,2.5,South,6.9,-,N/A,,Clear,180,2013-05-31 10:55:00
6:15 AM,59.9,57.4,91,29.64,1.5,SSE,8.1,-,N/A,,Mist,160,2013-05-31 11:15:00
6:35 AM,60.1,57.6,91,29.65,1.5,SSE,4.6,-,N/A,,Mostly Cloudy,160,2013-05-31 11:35:00
6:55 AM,61.0,58.8,93,29.65,2.0,SSE,10.4,-,N/A,,Overcast,160,2013-05-31 11:55:00
7:15 AM,61.7,59.2,91,29.65,4.0,South,11.5,-,N/A,,Overcast,180,2013-05-31 12:15:00
7:35 AM,62.6,59.9,91,29.64,5.0,South,12.7,-,N/A,,Mostly Cloudy,170,2013-05-31 12:35:00
7:55 AM,63.5,59.7,87,29.64,10.0,South,12.7,-,N/A,,Scattered Clouds,170,2013-05-31 12:55:00
8:15 AM,64.9,59.9,84,29.65,10.0,South,12.7,-,N/A,,Clear,180,2013-05-31 13:15:00
8:35 AM,65.7,60.3,83,29.66,10.0,South,15.0,-,N/A,,Clear,170,2013-05-31 13:35:00
8:55 AM,67.3,61.0,80,29.66,10.0,South,13.8,-,N/A,,Mostly Cloudy,180,2013-05-31 13:55:00
9:15 AM,68.4,61.3,78,29.66,10.0,SSW,11.5,-,N/A,,Scattered Clouds,200,2013-05-31 14:15:00
9:35 AM,70.3,60.1,70,29.66,10.0,SSW,16.1,-,N/A,,Scattered Clouds,200,2013-05-31 14:35:00
9:55 AM,71.6,58.5,63,29.66,10.0,SSW,15.0,-,N/A,,Scattered Clouds,210,2013-05-31 14:55:00
10:15 AM,73.2,56.7,56,29.66,10.0,SW,13.8,-,N/A,,Clear,220,2013-05-31 15:15:00
10:35 AM,73.4,56.1,55,29.66,10.0,SW,16.1,-,N/A,,Clear,230,2013-05-31 15:35:00
10:55 AM,74.1,54.3,50,29.67,10.0,SW,15.0,-,N/A,,Clear,230,2013-05-31 15:55:00
11:15 AM,74.1,54.7,51,29.69,10.0,SW,17.3,23.0,N/A,,Mostly Cloudy,230,2013-05-31 16:15:00
11:35 AM,73.9,54.9,51,29.69,10.0,SW,15.0,-,N/A,,Mostly Cloudy,230,2013-05-31 16:35:00
11:55 AM,74.7,54.5,49,29.70,10.0,WSW,17.3,-,N/A,,Scattered Clouds,240,2013-05-31 16:55:00
12:15 PM,74.5,53.2,47,29.69,10.0,SW,13.8,-,N/A,,Scattered Clouds,220,2013-05-31 17:15:00
12:35 PM,75.4,54.3,48,29.68,10.0,SSW,15.0,-,N/A,,Scattered Clouds,210,2013-05-31 17:35:00
12:55 PM,75.2,53.1,46,29.68,10.0,SW,19.6,-,N/A,,Clear,230,2013-05-31 17:55:00
1:15 PM,75.4,52.7,45,29.68,10.0,SW,16.1,-,N/A,,Clear,230,2013-05-31 18:15:00
1:35 PM,76.1,52.5,44,29.67,10.0,SW,18.4,23.0,N/A,,Clear,230,2013-05-31 18:35:00
1:55 PM,76.3,52.7,44,29.67,10.0,SSW,17.3,23.0,N/A,,Clear,210,2013-05-31 18:55:00
2:15 PM,76.8,53.8,45,29.66,10.0,SSW,17.3,-,N/A,,Clear,200,2013-05-31 19:15:00
2:35 PM,77.2,54.9,46,29.66,10.0,SSW,18.4,24.2,N/A,,Scattered Clouds,210,2013-05-31 19:35:00
2:55 PM,77.9,53.8,43,29.66,10.0,SW,19.6,23.0,N/A,,Clear,220,2013-05-31 19:55:00
3:15 PM,77.5,53.6,43,29.65,10.0,SSW,21.9,28.8,N/A,,Clear,210,2013-05-31 20:15:00
3:35 PM,77.7,51.3,40,29.64,10.0,SW,19.6,26.5,N/A,,Clear,220,2013-05-31 20:35:00
3:55 PM,75.4,59.7,58,29.64,10.0,SSW,25.3,32.2,N/A,,Mostly Cloudy,200,2013-05-31 20:55:00
4:15 PM,75.9,58.6,55,29.64,10.0,SSW,24.2,29.9,N/A,,Mostly Cloudy,200,2013-05-31 21:15:00
4:35 PM,76.5,59.9,56,29.64,10.0,South,21.9,27.6,N/A,,Scattered Clouds,190,2013-05-31 21:35:00
4:55 PM,75.9,59.0,56,29.64,10.0,South,25.3,34.5,N/A,,Scattered Clouds,190,2013-05-31 21:55:00
5:15 PM,74.8,58.3,56,29.64,10.0,SSW,25.3,28.8,N/A,,Scattered Clouds,200,2013-05-31 22:15:00
5:35 PM,75.4,59.5,58,29.63,10.0,SSW,20.7,27.6,N/A,,Scattered Clouds,200,2013-05-31 22:35:00
5:55 PM,75.2,59.4,58,29.64,10.0,SSW,23.0,26.5,N/A,,Scattered Clouds,200,2013-05-31 22:55:00
6:15 PM,74.7,59.7,60,29.63,10.0,SSW,19.6,-,N/A,,Scattered Clouds,200,2013-05-31 23:15:00
6:35 PM,74.8,60.4,61,29.63,10.0,SSW,18.4,-,N/A,,Scattered Clouds,210,2013-05-31 23:35:00
6:55 PM,74.7,59.9,60,29.61,10.0,SSW,18.4,-,N/A,,Clear,210,2013-05-31 23:55:00
7:15 PM,73.9,60.3,62,29.62,10.0,South,18.4,21.9,N/A,,Clear,190,2013-06-01 00:15:00
7:35 PM,73.4,60.8,65,29.63,10.0,South,17.3,-,N/A,,Clear,190,2013-06-01 00:35:00
7:55 PM,72.7,60.4,65,29.63,10.0,South,16.1,-,N/A,,Clear,180,2013-06-01 00:55:00
8:15 PM,71.6,60.6,68,29.62,10.0,SSW,13.8,-,N/A,,Clear,200,2013-06-01 01:15:00
8:35 PM,70.2,60.8,72,29.62,10.0,South,11.5,-,N/A,,Clear,180,2013-06-01 01:35:00
8:55 PM,69.3,61.0,75,29.62,10.0,South,9.2,-,N/A,,Clear,180,2013-06-01 01:55:00
9:15 PM,68.5,61.0,77,29.62,10.0,South,10.4,-,N/A,,Clear,170,2013-06-01 02:15:00
9:35 PM,68.4,60.8,77,29.64,10.0,South,13.8,-,N/A,,Clear,170,2013-06-01 02:35:00
9:55 PM,68.5,60.8,76,29.65,10.0,South,15.0,-,N/A,,Mostly Cloudy,170,2013-06-01 02:55:00
10:15 PM,68.9,60.8,75,29.66,10.0,South,18.4,23.0,N/A,,Mostly Cloudy,180,2013-06-01 03:15:00
10:35 PM,68.4,61.3,78,29.65,10.0,SSW,16.1,-,N/A,,Overcast,200,2013-06-01 03:35:00
10:55 PM,68.2,61.2,78,29.65,10.0,SW,16.1,-,N/A,,Mostly Cloudy,220,2013-06-01 03:55:00
11:15 PM,68.0,61.0,78,29.66,10.0,SW,12.7,-,N/A,,Mostly Cloudy,220,2013-06-01 04:15:00
11:35 PM,66.6,59.9,79,29.65,10.0,SW,11.5,-,N/A,,Scattered Clouds,230,2013-06-01 04:35:00
11:55 PM,65.7,57.7,76,29.64,10.0,WSW,10.4,-,N/A,,Clear,240,2013-06-01 04:55:00